Home   Weather   Paris 15   Past weeks
Flag for France

Past Weather in Paris 15, Paris, France — Yesterday and Last 2 Weeks

Now
46 °F

Scattered clouds.


Feels Like: 44 °F
Forecast: 49 / 40 °F
Wind: 6 mph from West

Location: Villacoublay

Current Time: Nov 12, 2019 at 3:23:23 pm

Latest Report: Nov 12, 2019 at 2:30 pm


Visibility: N/A

Pressure: 29.65 "Hg

Humidity: 76%

Dew Point: 39 °F

Location of Paris 15Location

Past Weather in Paris 15 — Graph

°F

Paris 15 Temperature Yesterday

Maximum temperature yesterday: 46 °F (at 2:00 pm)
Minimum temperature yesterday: 39 °F (at 2:00 am)
Average temperature yesterday: 41 °F

High & Low Weather Summary for the Past Weeks

 TemperatureHumidityPressure
High61 °F (Nov 1, 4:00 pm)100% (Oct 31, 1:00 am)30.18 "Hg (Oct 31, 1:00 am)
Low36 °F (Nov 9, 1:00 am)54% (Oct 28, 2:00 pm)28.94 "Hg (Nov 3, 6:30 am)
Average47 °F89%29.67 "Hg
* Reported Oct 28 2:00 pm — Nov 12 2:00 pm, Paris 15. Weather by CustomWeather, © 2019

Note: Actual official high and low records may vary slightly from our data, if they occured in-between our weather recording intervals... More about our weather records

Advertising

Paris 15 Weather History for the Previous 24 Hours

Scroll right to see more
 ConditionsComfort  
Time TempWeatherWind HumidityBarometerVisibility
2:00 pm
Tue, Nov 12
43 °FBroken clouds.6 mph93%29.65 "HgN/A
1:30 pm39 °FLight rain. Partly sunny.7 mph93%29.65 "Hg4 mi
1:00 pm46 °FPartly sunny.13 mph76%29.65 "HgN/A
12:30 pm46 °FBroken clouds.13 mph76%29.65 "HgN/A
12:00 pm45 °FBroken clouds.14 mph81%29.65 "HgN/A
11:30 am45 °FOvercast.12 mph81%29.65 "HgN/A
11:00 am45 °FBroken clouds.12 mph81%29.68 "HgN/A
10:30 am43 °FBroken clouds.10 mph87%29.68 "HgN/A
10:00 am43 °FPartly sunny.10 mph87%29.65 "HgN/A
9:30 am41 °FPartly sunny.7 mph93%29.68 "HgN/A
9:00 am41 °FPartly sunny.9 mph93%29.68 "HgN/A
8:30 am39 °FPartly sunny.9 mph93%29.65 "HgN/A
8:00 am39 °FMostly cloudy.9 mph93%29.65 "HgN/A
7:30 am39 °FPassing clouds.9 mph93%29.65 "HgN/A
7:00 am41 °FPassing clouds.10 mph87%29.65 "HgN/A
6:30 am41 °FLow clouds.12 mph93%29.65 "HgN/A
6:00 am41 °FPassing clouds.12 mph93%29.65 "HgN/A
5:30 am41 °FPartly cloudy.10 mph93%29.65 "HgN/A
5:00 am41 °FLight rain. Passing clouds.9 mph93%29.68 "HgN/A
4:30 am41 °FPartly cloudy.10 mph93%29.68 "HgN/A
4:00 am39 °FPassing clouds.10 mph100%29.68 "HgN/A
3:30 am39 °FPartly cloudy.8 mph93%29.71 "HgN/A
3:00 am39 °FPassing clouds.8 mph93%29.71 "HgN/A
2:30 am39 °FPassing clouds.7 mph93%29.71 "HgN/A
2:00 am39 °FClear.6 mph93%29.71 "Hg10 mi
1:30 am39 °FPassing clouds.8 mph93%29.71 "HgN/A
1:00 am37 °FPassing clouds.6 mph100%29.74 "HgN/A
12:30 am37 °FPartly cloudy.5 mph93%29.74 "HgN/A
12:00 am39 °FPassing clouds.7 mph93%29.74 "HgN/A
11:30 pm
Mon, Nov 11
39 °FPartly cloudy.6 mph93%29.74 "HgN/A
11:00 pm39 °FPassing clouds.8 mph93%29.74 "HgN/A
10:30 pm39 °FClear.8 mph93%29.74 "Hg10 mi
10:00 pm39 °FClear.9 mph93%29.74 "Hg10 mi
9:30 pm41 °FClear.13 mph87%29.74 "Hg10 mi
9:00 pm41 °FPassing clouds.10 mph87%29.74 "HgN/A
8:30 pm41 °FPassing clouds.13 mph87%29.74 "HgN/A
8:00 pm41 °FPassing clouds.7 mph87%29.74 "HgN/A
7:30 pm41 °FPassing clouds.7 mph87%29.74 "HgN/A
7:00 pm41 °FPassing clouds.9 mph87%29.74 "HgN/A
6:30 pm41 °FClear.9 mph87%29.71 "Hg10 mi
6:00 pm41 °FPassing clouds.8 mph93%29.71 "HgN/A
5:30 pm41 °FPassing clouds.7 mph87%29.71 "HgN/A
5:00 pm43 °FSunny.12 mph81%29.68 "Hg10 mi
4:30 pm45 °FBroken clouds.10 mph81%29.68 "HgN/A
4:00 pm45 °FPartly sunny.16 mph81%29.68 "HgN/A
3:30 pm46 °FPartly sunny.13 mph82%29.68 "HgN/A
3:00 pm46 °FBroken clouds.15 mph87%29.68 "HgN/A
Weather by CustomWeather, © 2019

See weather overview